This is the latest recevied weather packets stored in our database for station/object PP5AMP-13. If no packets are shown the sender has not sent any weather packets the latest 1 day(s).
| Time | Temp. | Humidity | Pressure | Rain* | Wind** | Luminosity | Snow |
|---|---|---|---|---|---|---|---|
| 1778096985 | 26.67° C | 81% | 1017.7 hPa | - | - | - | - |
| 1778096377 | 26.67° C | 82% | 1017.7 hPa | - | - | - | - |
| 1778095183 | 26.67° C | 82% | 1017.8 hPa | - | - | - | - |
| 1778094578 | 26.67° C | 82% | 1017.9 hPa | - | - | - | - |
| 1778088580 | 26.11° C | 82% | 1018.6 hPa | - | - | - | - |
| 1778087377 | 26.11° C | 82% | 1018.8 hPa | - | - | - | - |
| 1778085577 | 26.11° C | 82% | 1019.2 hPa | - | - | - | - |
| 1778083776 | 26.11° C | 83% | 1019.4 hPa | - | - | - | - |
| 1778081976 | 26.67° C | 81% | 1020.1 hPa | - | - | - | - |
| 1778080176 | 26.67° C | 81% | 1020.6 hPa | - | - | - | - |
| 1778079576 | 26.67° C | 81% | 1020.7 hPa | - | - | - | - |
| 1778078976 | 26.67° C | 81% | 1020.9 hPa | - | - | - | - |
| 1778076576 | 26.11° C | 82% | 1021.6 hPa | - | - | - | - |
| 1778075976 | 26.11° C | 80% | 1021.7 hPa | - | - | - | - |
| 1778075376 | 26.11° C | 80% | 1021.7 hPa | - | - | - | - |
| 1778072976 | 25.56° C | 82% | 1021.9 hPa | - | - | - | - |
| 1778071776 | 25.56° C | 83% | 1021.9 hPa | - | - | - | - |
| 1778067576 | 24.44° C | 87% | 1021.4 hPa | - | - | - | - |
| 1778062175 | 23.89° C | 84% | 1020.3 hPa | - | - | - | - |
| 1778061575 | 23.89° C | 84% | 1020.3 hPa | - | - | - | - |
| 1778059775 | 23.89° C | 83% | 1020.3 hPa | - | - | - | - |
| 1778059175 | 23.89° C | 83% | 1020.4 hPa | - | - | - | - |
| 1778037574 | 24.44° C | 84% | 1020.1 hPa | - | - | - | - |
| 1778036974 | 24.44° C | 84% | 1020.2 hPa | - | - | - | - |
| 1778036376 | 24.44° C | 84% | 1020.1 hPa | - | - | - | - |
* Rain since midnight (hover to see other rain measurements)
** Current wind speed in m/s (hover to see current wind gust speed)